Regional Weather Roundup
Issued by NWS

Home | Current Version | Previous Version | Graphics & Text | Print | Product List | Glossary On
Versions: 1 2 3 4 5 6 7 8 9 10 11 12 13 14 15 16 17 18 19 20 21 22 23 24 25 26 27 28 29 30 31 32 33 34 35 36 37 38 39 40 41 42 43 44 45 46 47 48 49 50
000
ASUS43 KLSX 272310
RWRMO

WEATHER SUMMARY FOR MISSOURI
NATIONAL WEATHER SERVICE SPRINGFIELD MO
600 PM CDT FRI MAY 27 2016

NOTE: "FAIR" INDICATES FEW OR NO CLOUDS BELOW 12,000 FEET WITH NO
       SIGNIFICANT WEATHER AND/OR OBSTRUCTIONS TO VISIBILITY.
       CURRENT SKY AND/OR WEATHER CONDITIONS ARE NOT AVAILABLE FOR
       CHILLICOTHE AND FARMINGTON.

MOZ001>031-035>038-043-044-053-054-280000-
...NORTHERN AND WESTERN MISSOURI...

CITY           SKY/WX    TMP DP  RH WIND       PRES   REMARKS
KANSAS CTY INT CLOUDY    69  65  86 E6        29.70F
KANSAS C DTWN  MOSUNNY   72  66  81 N3        29.68F
LEE`S SUMMIT   CLOUDY    75  64  68 S13       29.70F
ST JOSEPH      PTSUNNY   73  65  75 E7        29.68F
CHILLICOTHE      N/A     79  68  69 CALM      29.70F
KIRKSVILLE     CLOUDY    82  67  60 NW5       29.70F

$$
MOZ066>068-077>081-088>096-101>105-280000-
...SOUTHWEST MISSOURI...

CITY           SKY/WX    TMP DP  RH WIND       PRES   REMARKS
SPRINGFIELD    CLOUDY    73  65  75 SE8       29.75S
JOPLIN         CLOUDY    73  66  78 SE5       29.72F
BRANSON        CLOUDY    73  66  78 SE9       29.77F

$$
MOZ032>034-039>042-045>050-055>058-069>072-280000-
...CENTRAL MISSOURI...

CITY           SKY/WX    TMP DP  RH WIND       PRES   REMARKS
COLUMBIA       RAIN      72  70  93 E8        29.73S FOG
JEFFERSON CITY TSTM      69  66  90 SE16G25   29.74R FOG
ROLLA          PTSUNNY   72  69  90 S13       29.76F
SEDALIA        CLOUDY    77  69  76 S13       29.72F
WHITEMAN AFB   CLOUDY    75  70  83 SW10      29.70F
WARRENSBURG    CLOUDY    73  68  83 S6        29.70F

$$
MOZ051-052-059>065-280000-
...EAST CENTRAL MISSOURI...

CITY           SKY/WX    TMP DP  RH WIND       PRES   REMARKS
ST LOUIS INTL  TSTM      72  66  83 S15G22    29.80F
SPIRIT OF STL  LGT RAIN  73  69  87 S8G18     29.77F
ST CHARLES     TSTM      73  71  93 S21G26    29.78F FOG

$$
MOZ072>076-082>087-097>100-106>115-280000-
...SOUTH CENTRAL AND SOUTHEAST MISSOURI...

CITY           SKY/WX    TMP DP  RH WIND       PRES   REMARKS
CAPE GIRARDEAU CLOUDY    73  69  87 S6        29.86F
FARMINGTON     CLOUDY    69  66  90 S12       29.85S
POPLAR BLUFF   CLOUDY    74  69  85 S6        29.83F
WEST PLAINS    CLOUDY    70  66  87 SE5       29.81F

$$




USA.gov is the U.S. government's official web portal to all federal, state and local government web resources and services.